TimeEST,TemperatureF,Dew PointF,Humidity,Sea Level PressureIn,VisibilityMPH,Wind Direction,Wind SpeedMPH,Gust SpeedMPH,PrecipitationIn,Events,Conditions,WindDirDegrees,DateUTC
12:53 AM,35.1,34.0,96,29.92,3.0,West,12.7,-,N/A,,Overcast,270,2012-12-25 05:53:00
1:40 AM,35.6,33.8,93,29.90,2.5,West,10.4,-,N/A,,Overcast,280,2012-12-25 06:40:00
1:53 AM,35.1,34.0,96,29.96,2.5,West,10.4,-,0.00,Rain,Light Rain,280,2012-12-25 06:53:00
2:07 AM,35.6,33.8,93,29.91,3.0,West,10.4,-,0.00,,Overcast,280,2012-12-25 07:07:00
2:53 AM,35.1,34.0,96,29.98,3.0,Variable,6.9,18.4,0.00,,Overcast,0,2012-12-25 07:53:00
3:30 AM,35.6,33.8,93,29.95,2.5,West,5.8,-,N/A,,Overcast,280,2012-12-25 08:30:00
3:50 AM,33.8,33.8,100,29.95,1.8,West,8.1,-,N/A,,Overcast,280,2012-12-25 08:50:00
3:53 AM,34.0,34.0,100,30.00,2.0,Variable,6.9,-,N/A,,Overcast,0,2012-12-25 08:53:00
4:34 AM,33.8,33.8,100,29.96,1.8,WNW,6.9,-,N/A,,Overcast,300,2012-12-25 09:34:00
4:43 AM,33.8,33.8,100,29.97,2.5,WNW,8.1,-,N/A,,Overcast,290,2012-12-25 09:43:00
4:53 AM,34.0,34.0,100,30.02,3.0,NW,5.8,-,N/A,,Overcast,310,2012-12-25 09:53:00
5:53 AM,34.0,33.1,96,30.05,2.5,Variable,4.6,-,N/A,,Overcast,0,2012-12-25 10:53:00
6:11 AM,33.8,33.8,100,30.02,3.0,Variable,4.6,-,N/A,,Overcast,0,2012-12-25 11:11:00
6:42 AM,33.8,33.8,100,30.04,2.5,NNW,5.8,-,N/A,,Overcast,330,2012-12-25 11:42:00
6:53 AM,34.0,32.0,92,30.09,3.0,NNW,5.8,-,N/A,,Overcast,330,2012-12-25 11:53:00
7:14 AM,33.8,33.8,100,30.06,3.0,NW,4.6,-,N/A,,Overcast,320,2012-12-25 12:14:00
7:22 AM,33.8,33.8,100,30.06,2.5,NW,5.8,-,N/A,,Overcast,310,2012-12-25 12:22:00
7:43 AM,33.8,33.8,100,30.07,2.5,NW,4.6,-,N/A,,Overcast,320,2012-12-25 12:43:00
7:53 AM,33.1,32.0,96,30.11,1.5,NW,5.8,-,N/A,,Overcast,320,2012-12-25 12:53:00
8:14 AM,33.8,32.0,93,30.07,2.0,NW,5.8,-,N/A,,Overcast,320,2012-12-25 13:14:00
8:36 AM,33.8,32.0,93,30.08,3.0,NNW,5.8,-,N/A,,Overcast,330,2012-12-25 13:36:00
8:49 AM,33.8,32.0,93,30.08,3.0,NW,4.6,-,N/A,,Overcast,320,2012-12-25 13:49:00
8:53 AM,34.0,32.0,92,30.13,3.0,NNW,4.6,-,N/A,,Overcast,330,2012-12-25 13:53:00
9:53 AM,33.1,30.0,89,30.16,10.0,NNW,9.2,-,N/A,,Overcast,330,2012-12-25 14:53:00
10:53 AM,34.0,30.0,85,30.17,10.0,North,6.9,-,N/A,,Overcast,360,2012-12-25 15:53:00
11:33 AM,33.8,30.2,87,30.15,10.0,NNW,5.8,-,N/A,,Overcast,340,2012-12-25 16:33:00
11:53 AM,34.0,28.9,82,30.18,10.0,NNW,10.4,-,N/A,,Overcast,340,2012-12-25 16:53:00
12:16 PM,33.8,30.2,87,30.12,10.0,NNW,10.4,-,N/A,,Overcast,340,2012-12-25 17:16:00
12:53 PM,34.0,28.0,79,30.18,10.0,North,6.9,-,N/A,,Overcast,350,2012-12-25 17:53:00
1:53 PM,35.1,27.0,72,30.16,10.0,North,8.1,-,N/A,,Overcast,350,2012-12-25 18:53:00
2:53 PM,34.0,26.1,73,30.17,10.0,North,5.8,-,N/A,,Overcast,360,2012-12-25 19:53:00
3:53 PM,35.1,25.0,67,30.22,10.0,Calm,Calm,-,N/A,,Overcast,0,2012-12-25 20:53:00
4:53 PM,34.0,26.1,73,30.22,10.0,North,4.6,-,N/A,,Overcast,360,2012-12-25 21:53:00
5:53 PM,33.1,26.1,75,30.21,10.0,NNE,3.5,-,N/A,,Overcast,20,2012-12-25 22:53:00
6:53 PM,33.1,27.0,78,30.21,10.0,North,5.8,-,N/A,,Overcast,360,2012-12-25 23:53:00
7:53 PM,33.1,26.1,75,30.22,10.0,NNE,5.8,-,N/A,,Overcast,20,2012-12-26 00:53:00
8:53 PM,33.1,25.0,72,30.22,10.0,Variable,4.6,-,N/A,,Overcast,0,2012-12-26 01:53:00
9:53 PM,33.1,24.1,70,30.23,10.0,ENE,3.5,-,N/A,,Overcast,60,2012-12-26 02:53:00
10:53 PM,32.0,26.1,79,30.22,10.0,ENE,5.8,-,N/A,,Mostly Cloudy,60,2012-12-26 03:53:00
11:06 PM,32.0,26.6,80,30.17,10.0,ENE,5.8,-,N/A,,Scattered Clouds,60,2012-12-26 04:06:00
11:53 PM,32.0,27.0,82,30.21,10.0,Variable,3.5,-,N/A,,Overcast,0,2012-12-26 04:53:00